Ogden, UT

7:23 AM MDT on October 18, 2017 (GMT -0600)
Ogden-Hinckley

Weather History for KOGD - March, 2014

Change the Weather History Date:

Monday, March 10, 2014

  Actual Average Record
Temperature  
Mean Temperature 48 °F -  
Max Temperature 59 °F 53 °F 74 °F (1989)
Min Temperature 39 °F 31 °F 10 °F (1943)
Degree Days  
Heating Degree Days 17    
Moisture  
Dew Point 28 °F    
Average Humidity 45    
Maximum Humidity 70    
Minimum Humidity 25    
Precipitation  
Precipitation 0.01 in - - ()
Sea Level Pressure  
Sea Level Pressure 29.88 in    
Wind  
Wind Speed 8 mph (South)    
Max Wind Speed 26 mph    
Max Gust Speed 39 mph    
Visibility 10 miles    
Events Rain    
Averages and records for this station are not official NWS values.
T = Trace of Precipitation, MM = Missing Value Source: NWS Daily Summary

Daily Weather History Graph

Daily Weather History Graph

Search for Another Location

Airport or City:

Trip Planner

Search our weather history database for the weather conditions in past years. The results will help you decide how hot, cold, wet, or windy it might be!

Date:

Astronomy

Mar. 10, 2014 Rise Set
Actual Time 7:47 AM MDT 7:29 PM MDT
Civil Twilight 7:20 AM MDT 7:56 PM MDT
Nautical Twilight 6:48 AM MDT 8:28 PM MDT
Astronomical Twilight 6:16 AM MDT 9:01 PM MDT
Moon 2:13 PM MDT (3/10) 4:04 AM MDT (3/10)
Length of Visible Light 12h 36m
Length of Day
11h 41m
Waxing Gibbous, 70% of the Moon is Illuminated
Mar 10
Waxing Gibbous
Mar 16
Full
Mar 23
Last Quarter
Mar 30
New
Apr 7
First Quarter

Hourly Weather History & Observations

Time (MDT) Temp. Windchill Dew Point Humidity Pressure Visibility Wind Dir Wind Speed Gust Speed Precip Events Conditions
12:53 AM 48.9 °F - 28.0 °F 44% 30.05 in 10.0 mi South 6.9 mph - N/A   Mostly Cloudy
1:53 AM 48.0 °F - 32.0 °F 54% 30.03 in 10.0 mi Calm Calm - N/A   Mostly Cloudy
2:53 AM 48.0 °F - 30.9 °F 52% 30.00 in 10.0 mi East 4.6 mph - N/A   Overcast
3:53 AM 46.9 °F - 28.9 °F 50% 29.97 in 10.0 mi South 6.9 mph - N/A   Overcast
4:53 AM 48.0 °F - 27.0 °F 44% 29.92 in 10.0 mi SSE 11.5 mph - N/A   Mostly Cloudy
5:53 AM 48.9 °F - 25.0 °F 39% 29.91 in 10.0 mi SSE 8.1 mph - N/A   Partly Cloudy
6:53 AM 46.9 °F - 27.0 °F 46% 29.90 in 10.0 mi South 8.1 mph - N/A   Scattered Clouds
7:53 AM 46.9 °F - 27.0 °F 46% 29.90 in 10.0 mi SSE 5.8 mph - N/A   Mostly Cloudy
8:53 AM 48.0 °F - 26.1 °F 42% 29.89 in 10.0 mi SSE 11.5 mph - N/A   Mostly Cloudy
9:53 AM 50.0 °F - 27.0 °F 41% 29.87 in 10.0 mi South 5.8 mph - N/A   Clear
10:53 AM 55.0 °F - 23.0 °F 29% 29.85 in 10.0 mi SE 8.1 mph - N/A   Partly Cloudy
11:53 AM 57.0 °F - 25.0 °F 29% 29.82 in 10.0 mi South 11.5 mph - N/A   Clear
12:53 PM 57.9 °F - 21.9 °F 25% 29.81 in 10.0 mi South 12.7 mph - N/A   Clear
1:53 PM 57.9 °F - 24.1 °F 27% 29.78 in 10.0 mi SW 4.6 mph - N/A   Mostly Cloudy
2:53 PM 57.9 °F - 24.1 °F 27% 29.74 in 10.0 mi West 3.5 mph - N/A   Mostly Cloudy
3:53 PM 55.9 °F - 28.0 °F 34% 29.72 in 10.0 mi South 5.8 mph - N/A   Overcast
4:53 PM 54.0 °F - 30.9 °F 41% 29.74 in 10.0 mi NW 6.9 mph - N/A   Overcast
5:53 PM 50.0 °F - 32.0 °F 50% 29.79 in 10.0 mi NNW 26.5 mph 39.1 mph 0.00 in Rain Light Rain
6:53 PM 48.9 °F - 33.1 °F 54% 29.82 in 10.0 mi NE 9.2 mph - 0.00 in   Overcast
7:53 PM 46.0 °F 42.5 °F 36.0 °F 68% 29.86 in 10.0 mi North 6.9 mph - 0.00 in Rain Light Rain
8:53 PM 42.1 °F 35.7 °F 33.1 °F 70% 29.92 in 10.0 mi North 11.5 mph - 0.01 in   Overcast
9:53 PM 41.0 °F 35.2 °F 28.9 °F 62% 29.95 in 10.0 mi NW 9.2 mph - N/A   Mostly Cloudy
10:53 PM 39.9 °F 33.9 °F 27.0 °F 60% 29.96 in 10.0 mi North 9.2 mph - N/A   Scattered Clouds
11:53 PM 39.9 °F 31.4 °F 25.0 °F 55% 29.98 in 10.0 mi NNW 16.1 mph 23.0 mph N/A   Mostly Cloudy